Location: Shepherdstown, WV
(39.4326°N, 77.8042°W)
Time: 17:52:19
(UTC-04:00)

X-37B - Visible Passes

Search period start: 23 June 2021 00:00
Search period end: 03 July 2021 00:00
Orbit: 386 x 389 km, 45.0° (Epoch: 10 June)

Date Brightness Start Highest point End Pass type
(mag) Time Alt. Az. Time Alt. Az. Time Alt. Az.
23 Jun 3.4 02:59:40 12° E 02:59:40 12° E 02:59:59 10° ESE visible
23 Jun 1.7 04:32:12 19° WSW 04:33:19 23° SW 04:35:55 10° SSE visible
23 Jun 1.0 22:41:10 10° WSW 22:44:20 62° NNW 22:47:13 12° ENE visible
24 Jun 3.3 00:18:30 10° WNW 00:19:34 17° NW 00:19:34 17° NW visible
24 Jun 0.5 21:42:47 10° WSW 21:45:57 78° SSE 21:49:07 10° ENE visible
24 Jun 2.4 23:19:53 10° WNW 23:22:47 32° N 23:24:24 20° NE visible
25 Jun 1.9 22:21:15 10° W 22:24:18 41° NNW 22:27:21 10° ENE visible
25 Jun 2.7 23:58:34 10° WNW 00:01:00 27° NNW 00:01:00 27° NNW visible
26 Jun 1.1 21:22:42 10° WSW 21:25:51 62° NNW 21:29:00 10° ENE visible
26 Jun 2.6 23:00:01 10° WNW 23:02:51 28° N 23:05:06 14° NE visible
27 Jun 3.6 00:36:55 10° WNW 00:37:22 13° NW 00:37:22 13° NW visible
27 Jun 2.4 22:01:24 10° WNW 22:04:19 32° N 22:07:14 10° ENE visible
27 Jun 2.3 23:38:33 10° WNW 23:41:21 31° N 23:41:21 31° N visible
28 Jun 2.5 22:40:06 10° WNW 22:42:55 28° N 22:45:16 13° ENE visible
29 Jun 3.4 00:16:47 10° WNW 00:17:32 16° WNW 00:17:32 16° WNW visible
29 Jun 2.6 21:41:34 10° WNW 21:44:23 28° N 21:47:13 10° ENE visible
29 Jun 1.7 23:18:26 10° WNW 23:21:26 40° NNE 23:21:26 40° NNE visible
30 Jun 2.2 22:20:05 10° WNW 22:22:59 32° N 22:25:20 14° ENE visible
30 Jun 3.2 23:56:40 10° WNW 23:57:35 18° WNW 23:57:35 18° WNW visible
01 Jul 2.5 21:21:38 10° WNW 21:24:28 28° N 21:27:17 10° ENE visible
01 Jul 0.9 22:58:18 10° WNW 23:01:28 61° NNE 23:01:30 61° NNE visible
02 Jul 1.7 21:59:58 10° WNW 22:03:01 41° NNE 22:05:25 15° E visible
02 Jul 3.0 23:36:39 10° WNW 23:37:41 18° W 23:37:41 18° W visible
